Retour au catalogue

IPERDRONE.0

ActifSciencePO
NORAD 60520·PAYLOAD·🇮🇹 Italy

Lancé Aug 16, 2024 depuis Vandenberg Space Force Base

Loading…

Prochains Passages (prochaines 24 heures)

TLE

FraisSource: Space-Track

Époque: Sep 14, 2026, 00:29 UTC

1 60520U 24149BE  26257.02053492  .00199150  00000-0  81399-3 0  9998
2 60520  97.3720 355.6772 0004491 250.4169 109.6617 15.85570591116894

Suivez IPERDRONE.0 en temps réel avec AllMySat

Download on the App Store